Total_Precipitation_Accumulation
0.46 0.28 0.22 0.21 0.20 0.20 0.22 0.27 0.49 0.80 1.13 1.40 1.70 1.71 1.56 1.33 1.17 1.17 1.18 1.13 1.02 0.92 0.81 0.67 0.57 0.54 0.53 0.51 0.46 0.43 0.42 0.42 0.44 0.42 0.41 0.41 0.42 0.39 0.36 0.33 0.29 0.27 0.23 0.20
0.36 0.29 0.28 0.34 0.32 0.33 0.36 0.42 0.58 0.88 1.29 1.49 1.49 1.33 1.29 1.23 1.12 1.20 1.35 1.41 1.34 1.19 1.00 0.84 0.73 0.66 0.62 0.59 0.49 0.43 0.42 0.46 0.48 0.46 0.46 0.45 0.43 0.42 0.39 0.34 0.30 0.24 0.18 0.16
0.49 0.37 0.45 0.74 0.62 0.55 0.57 0.58 0.70 0.96 1.08 1.04 1.11 1.14 1.17 1.17 1.20 1.38 1.51 1.47 1.34 1.21 1.08 0.95 0.86 0.77 0.70 0.64 0.56 0.50 0.49 0.48 0.48 0.47 0.47 0.43 0.39 0.40 0.38 0.33 0.29 0.25 0.20 0.17
0.46 0.54 0.93 0.97 0.61 0.55 0.56 0.52 0.51 0.60 0.62 0.72 0.87 1.02 1.15 1.23 1.37 1.53 1.63 1.65 1.55 1.35 1.18 1.01 0.86 0.76 0.69 0.60 0.54 0.53 0.53 0.51 0.47 0.43 0.42 0.39 0.39 0.40 0.37 0.33 0.29 0.27 0.23 0.19
0.57 0.79 0.98 0.91 0.57 0.49 0.60 0.64 0.47 0.46 0.47 0.55 0.66 0.83 1.18 1.33 1.41 1.51 1.58 1.56 1.48 1.32 1.18 1.04 0.88 0.74 0.65 0.58 0.54 0.53 0.53 0.48 0.40 0.36 0.35 0.34 0.37 0.39 0.36 0.34 0.32 0.28 0.24 0.21
0.66 0.96 1.24 1.10 0.52 0.31 0.50 0.89 0.60 0.40 0.38 0.48 0.67 0.92 1.04 1.08 1.17 1.20 1.14 1.09 1.07 1.02 0.97 0.88 0.75 0.63 0.59 0.58 0.52 0.45 0.39 0.33 0.28 0.27 0.29 0.30 0.31 0.33 0.33 0.32 0.30 0.26 0.24 0.24
0.73 0.98 1.15 0.62 0.33 0.36 0.85 1.11 0.78 0.58 0.53 0.58 0.79 0.86 0.71 0.68 0.82 0.90 0.90 0.90 0.85 0.80 0.80 0.74 0.63 0.56 0.54 0.51 0.44 0.32 0.26 0.23 0.21 0.22 0.23 0.24 0.26 0.30 0.31 0.30 0.30 0.28 0.28 0.27
0.82 1.07 1.18 0.46 0.35 0.65 0.76 0.58 0.59 0.59 0.61 0.64 0.63 0.54 0.48 0.49 0.62 0.78 0.90 0.93 0.85 0.76 0.68 0.57 0.53 0.56 0.55 0.48 0.33 0.25 0.22 0.21 0.22 0.19 0.15 0.16 0.25 0.31 0.30 0.32 0.33 0.34 0.33 0.28
0.87 0.98 0.71 0.36 0.36 0.36 0.35 0.38 0.39 0.40 0.42 0.49 0.55 0.53 0.48 0.52 0.62 0.71 0.81 0.84 0.78 0.68 0.58 0.45 0.40 0.44 0.45 0.36 0.24 0.22 0.24 0.26 0.25 0.20 0.19 0.18 0.23 0.28 0.29 0.31 0.29 0.27 0.27 0.26
0.75 0.74 0.51 0.36 0.28 0.23 0.25 0.31 0.31 0.33 0.37 0.47 0.65 0.68 0.62 0.60 0.68 0.70 0.70 0.63 0.56 0.51 0.44 0.34 0.29 0.27 0.26 0.20 0.19 0.22 0.26 0.25 0.22 0.23 0.24 0.24 0.23 0.19 0.21 0.23 0.21 0.20 0.23 0.24
0.96 0.87 0.66 0.43 0.30 0.28 0.26 0.31 0.37 0.45 0.48 0.52 0.57 0.64 0.65 0.63 0.59 0.53 0.47 0.41 0.38 0.39 0.34 0.25 0.20 0.18 0.14 0.13 0.16 0.22 0.23 0.22 0.20 0.18 0.21 0.26 0.22 0.13 0.11 0.12 0.08 0.12 0.16 0.18
1.25 0.95 0.81 0.63 0.48 0.45 0.43 0.43 0.44 0.44 0.42 0.44 0.41 0.42 0.49 0.50 0.44 0.37 0.34 0.31 0.31 0.28 0.24 0.19 0.15 0.13 0.10 0.08 0.11 0.21 0.23 0.19 0.13 0.10 0.13 0.16 0.19 0.18 0.08 0.04 0.03 0.04 0.05 0.07
0.94 0.73 0.66 0.63 0.57 0.55 0.48 0.38 0.34 0.30 0.26 0.30 0.32 0.30 0.32 0.31 0.27 0.26 0.25 0.23 0.23 0.18 0.14 0.14 0.12 0.09 0.07 0.06 0.07 0.12 0.17 0.15 0.09 0.06 0.08 0.11 0.15 0.22 0.23 0.12 0.04 0.03 0.03 0.04
0.63 0.60 0.59 0.46 0.34 0.27 0.20 0.17 0.18 0.20 0.20 0.19 0.20 0.20 0.19 0.18 0.17 0.17 0.17 0.16 0.15 0.11 0.09 0.09 0.10 0.09 0.05 0.05 0.06 0.07 0.08 0.06 0.06 0.07 0.06 0.07 0.09 0.12 0.17 0.24 0.23 0.17 0.08 0.04
0.38 0.37 0.31 0.19 0.12 0.11 0.10 0.10 0.12 0.15 0.16 0.18 0.15 0.14 0.12 0.13 0.14 0.14 0.12 0.11 0.11 0.09 0.07 0.06 0.07 0.07 0.03 0.03 0.05 0.06 0.07 0.07 0.06 0.05 0.04 0.04 0.05 0.06 0.09 0.14 0.18 0.20 0.17 0.10
0.19 0.16 0.14 0.10 0.08 0.08 0.09 0.09 0.09 0.10 0.11 0.13 0.14 0.12 0.10 0.10 0.09 0.10 0.10 0.08 0.09 0.10 0.08 0.05 0.05 0.03 0.02 0.02 0.04 0.05 0.04 0.03 0.03 0.04 0.03 0.03 0.03 0.04 0.07 0.12 0.13 0.14 0.17 0.15
0.15 0.11 0.09 0.08 0.07 0.07 0.08 0.07 0.05 0.05 0.07 0.08 0.08 0.06 0.06 0.06 0.07 0.09 0.08 0.07 0.07 0.07 0.06 0.04 0.02 0.01 0.01 0.01 0.02 0.02 0.02 0.01 0.01 0.02 0.02 0.02 0.02 0.02 0.04 0.07 0.10 0.12 0.10 0.09
0.12 0.08 0.06 0.06 0.05 0.05 0.05 0.04 0.03 0.03 0.04 0.03 0.02 0.02 0.04 0.05 0.06 0.06 0.05 0.05 0.04 0.04 0.04 0.02 0.01 0.01 0.01 0.01 0.01 0.01 0.01 0.01 0.01 0.01 0.01 0.01 0.01 0.01 0.02 0.03 0.05 0.09 0.10 0.10
0.10 0.09 0.05 0.05 0.04 0.03 0.02 0.02 0.02 0.01 0.01 0.01 0.01 0.02 0.03 0.05 0.05 0.04 0.03 0.04 0.05 0.05 0.04 0.02 0.01 0.01 0.01 0.01 0.01 0.01 0.01 0.01 0.01 0.00 0.00 0.00 0.01 0.02 0.02 0.02 0.03 0.05 0.07 0.11
0.08 0.09 0.06 0.04 0.03 0.02 0.01 0.01 0.01 0.01 0.01 0.01 0.01 0.02 0.02 0.03 0.03 0.02 0.03 0.05 0.05 0.03 0.02 0.01 0.01 0.01 0.00 0.00 0.00 0.00 0.00 0.01 0.01 0.00 0.00 0.01 0.01 0.01 0.01 0.01 0.01 0.03 0.05 0.08
0.07 0.08 0.05 0.02 0.02 0.01 0.01 0.01 0.01 0.01 0.01 0.00 0.00 0.01 0.02 0.02 0.02 0.02 0.03 0.04 0.03 0.01 0.01 0.01 0.00 0.00 0.00 0.00 0.00 0.00 0.00 0.00 0.00 0.00 0.00 0.00 0.00 0.01 0.01 0.01 0.01 0.02 0.03 0.05
0.07 0.09 0.06 0.03 0.02 0.02 0.01 0.01 0.01 0.01 0.01 0.00 0.00 0.01 0.01 0.02 0.02 0.02 0.02 0.02 0.01 0.01 0.00 0.00 0.00 0.00 0.00 0.00 0.00 0.00 0.00 0.00 0.00 0.00 0.00 0.00 0.00 0.00 0.01 0.01 0.01 0.01 0.02 0.03
0.10 0.09 0.06 0.03 0.03 0.02 0.02 0.01 0.01 0.02 0.01 0.01 0.01 0.01 0.01 0.01 0.01 0.01 0.01 0.00 0.00 0.00 0.00 0.00 0.00 0.00 0.00 0.00 0.00 0.00 0.00 0.00 0.00 0.00 0.00 0.00 0.00 0.00 0.00 0.00 0.01 0.01 0.02 0.02
0.13 0.11 0.08 0.04 0.03 0.03 0.03 0.02 0.01 0.01 0.02 0.01 0.01 0.01 0.01 0.01 0.01 0.01 0.00 0.00 0.00 0.00 0.00 0.00 0.00 0.00 0.00 0.00 0.00 0.00 0.00 0.00 0.00 0.00 0.00 0.00 0.00 0.00 0.00 0.00 0.00 0.01 0.01 0.01
0.19 0.14 0.08 0.07 0.07 0.06 0.04 0.02 0.01 0.01 0.01 0.01 0.01 0.01 0.01 0.00 0.00 0.00 0.00 0.00 0.00 0.00 0.00 0.00 0.00 0.00 0.00 0.00 0.00 0.00 0.00 0.00 0.00 0.00 0.00 0.00 0.00 0.00 0.00 0.00 0.00 0.00 0.00 0.00
0.25 0.21 0.15 0.11 0.08 0.05 0.04 0.03 0.02 0.02 0.02 0.02 0.02 0.01 0.01 0.01 0.00 0.00 0.00 0.00 0.01 0.00 0.00 0.00 0.00 0.00 0.00 0.00 0.00 0.00 0.00 0.00 0.00 0.00 0.00 0.00 0.00 0.00 0.00 0.00 0.00 0.00 0.00 0.00
0.31 0.27 0.21 0.13 0.07 0.04 0.06 0.07 0.05 0.03 0.02 0.02 0.03 0.02 0.02 0.01 0.00 0.00 0.00 0.00 0.01 0.01 0.01 0.00 0.00 0.00 0.00 0.00 0.00 0.00 0.00 0.00 0.00 0.00 0.00 0.00 0.00 0.00 0.00 0.00 0.00 0.00 0.00 0.00